Hourly Data Report for September 26, 2017

All times are specified in Local Standard Time (LST). Add 1 hour to adjust for Daylight Saving Time where and when it is observed.

KUGLUKTUK A
NUNAVUT

67°49'00.000" N
115°08'38.000" W
22.60 m
2300903
71938
YCO

Download Data

Hourly Data (September 2017)
Hourly Data Report for September 26, 2017
Temp Definition
°C
Dew Point Temp Definition
°C
Rel Hum Definition
%
Wind Dir Definition
10's deg

Wind Spd Definition
km/h
Visibility Definition
km
Stn Press Definition
kPa
Hmdx Definition


Wind Chill Definition


Weather Definition


TIME
00:00 Legend Double Dagger 5.6 4.3 91 34 19 24.1 100.38     LegendNANA
01:00 Legend Double Dagger 5.5 3.5 87 34 20 24.1 100.44     LegendNANA
02:00 Legend Double Dagger 5.1 2.9 85 33 18 19.3 100.53     Drizzle
03:00 Legend Double Dagger 4.6 2.8 88 28 10 19.3 100.58     LegendNANA
04:00 Legend Double Dagger 4.3 3.4 94 25 14 19.3 100.63     Drizzle
05:00 Legend Double Dagger 3.7 3.0 95 26 15 19.3 100.65     Drizzle
06:00 Legend Double Dagger 3.4 2.8 96 26 18 24.1 100.67     LegendNANA
07:00 Legend Double Dagger 3.0 2.3 95 26 16 24.1 100.69     LegendNANA
08:00 Legend Double Dagger 3.0 2.6 97 27 18 24.1 100.77     Rain
09:00 Legend Double Dagger 3.8 2.8 93 27 12 24.1 100.81     LegendNANA
10:00 Legend Double Dagger 4.2 2.2 87 32 21 19.3 100.85     Rain
11:00 Legend Double Dagger 4.6 1.5 80 31 24 24.1 100.87     Rain
12:00 Legend Double Dagger 4.3 1.5 82 32 17 24.1 100.92     Rain
13:00 Legend Double Dagger 4.4 1.8 83 31 18 24.1 100.97     Rain
14:00 Legend Double Dagger 4.2 1.9 85 31 23 24.1 101.01     Rain
15:00 Legend Double Dagger 4.4 1.3 81 32 28 24.1 101.03     LegendNANA
16:00 Legend Double Dagger 4.0 0.7 79 31 23 24.1 101.09     LegendNANA
17:00 Legend Double Dagger 3.6 0.4 79 30 18 24.1 101.12     Cloudy
18:00 Legend Double Dagger 3.3 0.4 81 32 21 24.1 101.12     LegendNANA
19:00 Legend Double Dagger 3.1 0.1 80 32 19 24.1 101.18     LegendNANA
20:00 Legend Double Dagger 2.9 -0.1 80 31 20 24.1 101.23     Cloudy
21:00 Legend Double Dagger 2.5 -0.2 82 30 16 24.1 101.29     LegendNANA
22:00 Legend Double Dagger 2.3 -0.3 83 29 14 24.1 101.33     Rain
23:00 Legend Double Dagger 2.5 0.0 84 31 27 24.1 101.40     Cloudy

Notes on Data Quality.

Legend

  • E = Estimated
  • M = Missing
  • NA = Not Available
  • ‡ = Partner data that is not subject to review by the National Climate Archives
Date modified: